Hourly Data Report for July 04, 2020

OTTAWA INTL A
ONTARIO
Current Station Operator: NAVCAN

45°19'00.000" N
75°40'00.000" W
114.90 m
6106001
71628
YOW

Download Data

Hourly Data (July 2020)
Hourly Data Report for July 4, 2020
TIME Temp Definition
°C
Dew Point Definition
°C
Rel Hum Definition
%
Wind Dir Definition
10's deg

Wind Spd Definition
km/h
Visibility Definition
km
Stn Press Definition
kPa
Hmdx Definition


Wind Chill Definition


Weather Definition


00:00 21.5 14.6 64 34 14 24.1 99.91 25   LegendNANA
01:00 20.7 13.9 65 33 11 24.1 99.93     Mainly Clear
02:00 20.7 12.8 60 36 18 24.1 99.94     LegendNANA
03:00 20.2 11.8 58 36 20 24.1 99.96     LegendNANA
04:00 19.2 12.7 66 35 14 24.1 100.01     Mainly Clear
05:00 19.0 12.6 66 33 17 24.1 100.06     LegendNANA
06:00 20.2 11.7 57 34 17 24.1 100.09     LegendNANA
07:00 21.6 11.9 54 33 18 24.1 100.14     Clear
08:00 22.9 11.5 48 33 18 24.1 100.15 25   LegendNANA
09:00 24.6 11.5 43 33 17 24.1 100.15 27   LegendNANA
10:00 26.6 10.8 37 32 16 24.1 100.15 28   Clear
11:00 27.4 8.8 31 31 16 24.1 100.13 28   LegendNANA
12:00 28.5 4.7 22 31 9 24.1 100.07 28   LegendNANA
13:00 28.9 5.1 22 32 15 24.1 100.01 28   Mainly Clear
14:00 29.4 6.6 23 29 19 24.1 99.97 29   LegendNANA
15:00 29.9 5.2 20 28 23 24.1 99.99 29   LegendNANA
16:00 29.4 5.2 21 32 19 24.1 100.00 29   Mostly Cloudy
17:00 28.0 4.7 22 33 20 24.1 100.00 27   LegendNANA
18:00 27.2 5.2 24 36 18 24.1 99.98 27   LegendNANA
19:00 25.6 6.8 30 36 17 24.1 100.00 26   Mostly Cloudy
20:00 23.8 6.5 32 36 14 24.1 100.01     LegendNANA
21:00 22.4 6.5 35 34 13 24.1 100.07     LegendNANA
22:00 18.8 7.2 46 31 13 24.1 100.08     Mainly Clear
23:00 19.9 7.3 44 32 8 24.1 100.06     LegendNANA

Notes on Data Quality.

Legend

  • E = Estimated
  • M = Missing
  • NA = Not Available*
  • [empty] = Indicates an unobserved value
Date modified: